FW2887 Weather Reports


time (UTC)temp
C
wind
direction
speed
KPH
gust
KPH
rain 1hr
cm
rain 24hr
cm
rain mn
cm
humidity
%
barometer
mb
20260503032720 8 110 0.0 0.0 0.00 0.08 0.08 88 1014.8
20260503032220 8 110 0.0 0.0 0.00 0.08 0.08 88 1014.8
20260503031747 8 110 0.0 0.0 0.00 0.08 0.08 87 1014.7
20260503031227 8 110 0.0 0.0 0.00 0.08 0.08 87 1014.6
20260503030735 8 110 0.0 0.0 0.00 0.08 0.08 87 1014.5
20260503030238 8 110 0.0 0.0 0.00 0.08 0.08 87 1014.5
20260503025720 8 110 0.0 0.0 0.00 0.08 0.08 87 1014.5
20260503025226 8 110 0.0 0.0 0.00 0.08 0.08 87 1014.4
20260503024756 8 110 0.0 0.0 0.00 0.08 0.08 86 1014.4
20260503024215 8 110 0.0 0.0 0.00 0.08 0.08 86 1014.3
20260503023717 9 110 0.0 0.0 0.00 0.08 0.08 87 1014.3
20260503023226 9 110 0.0 0.0 0.00 0.08 0.08 87 1014.2
20260503022725 9 110 0.0 0.0 0.00 0.08 0.08 87 1014.1
20260503022226 9 110 0.0 0.0 0.00 0.08 0.08 87 1014.1
20260503021732 9 110 0.0 0.0 0.00 0.08 0.08 87 1014.2
20260503021213 10 110 0.0 0.0 0.00 0.08 0.08 87 1014.3
20260503020715 10 110 0.0 0.0 0.00 0.08 0.08 87 1014.3
20260503020222 10 110 0.0 0.0 0.00 0.08 0.08 88 1014.2
20260503015723 10 110 0.0 0.0 0.00 0.08 0.08 88 1014.2
20260503015232 10 110 0.0 0.0 0.00 0.08 0.08 88 1014.1
20260503014735 10 110 0.0 0.0 0.00 0.08 0.08 88 1014.0
20260503014220 10 110 0.0 0.0 0.00 0.08 0.08 87 1014.1
20260503013721 10 111 0.0 0.0 0.00 0.08 0.08 87 1014.0
20260503013221 10 111 0.0 0.0 0.00 0.08 0.08 87 1014.0
20260503012730 10 110 0.0 0.0 0.00 0.08 0.08 87 1013.9
20260503012212 10 111 0.0 0.0 0.00 0.08 0.08 86 1013.9
20260503011715 10 111 0.0 0.0 0.00 0.08 0.08 86 1013.8
20260503011224 10 111 0.0 0.0 0.00 0.08 0.08 86 1013.7
20260503010725 11 111 0.0 0.0 0.00 0.08 0.08 86 1013.7
20260503010254 11 111 0.0 0.0 0.00 0.08 0.08 85 1013.5
20260503005717 11 111 0.0 0.0 0.00 0.08 0.08 85 1013.5
20260503005225 11 111 0.0 0.0 0.00 0.08 0.08 85 1013.4
20260503004745 11 321 0.0 0.0 0.00 0.08 0.08 85 1013.3
20260503004213 11 321 0.0 0.0 0.00 0.08 0.08 84 1013.3
20260503003713 11 321 0.0 0.0 0.00 0.08 0.08 84 1013.3
20260503003216 11 321 0.0 0.0 0.00 0.08 0.08 84 1013.2
20260503002725 12 321 0.0 0.0 0.00 0.08 0.08 83 1013.1
20260503002225 12 321 0.0 0.0 0.00 0.08 0.08 83 1013.1
20260503001735 12 321 0.0 0.0 0.00 0.08 0.08 83 1012.9
20260503001214 12 321 0.0 0.0 0.00 0.08 0.08 83 1012.8
20260503000716 12 321 0.0 0.0 0.00 0.08 0.08 82 1012.8
20260503000225 12 321 0.0 0.0 0.00 0.08 0.08 82 1012.8
20260502235732 12 111 0.0 0.0 0.00 0.08 0.08 81 1012.6
20260502235212 12 321 0.0 0.0 0.00 0.08 0.08 80 1012.5
20260502234714 12 321 0.0 0.0 0.00 0.08 0.08 80 1012.5
20260502234222 12 111 0.0 0.0 0.00 0.08 0.08 79 1012.4
20260502233725 13 321 0.0 0.0 0.00 0.08 0.08 79 1012.4
20260502233234 13 321 0.0 0.0 0.00 0.08 0.08 79 1012.3
20260502232714 13 321 0.0 0.0 0.00 0.08 0.08 79 1012.2
20260502232218 13 112 0.0 0.0 0.00 0.08 0.08 79 1012.2
20260502231726 13 112 0.0 0.0 0.00 0.08 0.08 79 1012.2
20260502231229 13 321 0.0 0.0 0.00 0.08 0.08 79 1012.2
20260502230711 13 321 0.0 0.0 0.00 0.08 0.08 79 1012.1
20260502230231 13 112 0.0 0.0 0.00 0.08 0.08 78 1012.1
20260502225720 13 321 0.0 0.0 0.00 0.08 0.08 79 1012.1
20260502225226 13 111 0.0 0.0 0.00 0.08 0.08 79 1012.1
20260502224727 13 111 0.0 0.0 0.00 0.08 0.08 79 1012.2
20260502224236 13 321 0.0 0.0 0.00 0.08 0.08 78 1012.1
20260502223719 13 111 0.0 0.0 0.00 0.08 0.08 79 1012.1
20260502223220 13 321 0.0 0.0 0.00 0.08 0.08 77 1012.2
20260502222721 13 112 0.0 0.0 0.00 0.08 0.08 78 1012.2
20260502222229 13 321 0.0 0.0 0.00 0.08 0.08 78 1012.0
20260502221731 13 111 0.0 0.0 0.00 0.08 0.08 79 1012.1
20260502221240 13 321 0.0 0.0 0.00 0.08 0.08 78 1012.0
20260502220722 13 321 0.0 0.0 0.00 0.08 0.08 77 1012.0
20260502220222 13 111 0.0 0.0 0.00 0.08 0.08 77 1011.9
20260502215732 13 321 0.0 0.0 0.00 0.08 0.08 77 1012.0
20260502215214 13 321 0.0 0.0 0.00 0.08 0.08 76 1011.8
20260502214713 13 321 0.0 0.0 0.00 0.08 0.08 75 1011.8
20260502214222 13 111 0.0 0.0 0.00 0.08 0.08 75 1011.8
20260502213725 13 111 0.0 0.0 0.00 0.08 0.08 76 1011.7
20260502213232 13 321 0.0 0.0 0.00 0.08 0.08 75 1011.7
20260502212732 13 321 0.0 0.0 0.00 0.08 0.08 74 1011.8
20260502212216 13 321 0.0 0.0 0.00 0.08 0.08 74 1011.8
20260502211744 13 112 0.0 0.0 0.00 0.08 0.08 73 1011.7
20260502211224 13 111 0.0 0.0 0.00 0.08 0.08 72 1011.8
20260502210730 13 321 0.0 0.0 0.00 0.08 0.08 72 1011.9
20260502210232 13 111 0.0 0.0 0.00 0.08 0.08 72 1011.9
20260502205714 13 111 0.0 0.0 0.00 0.08 0.08 74 1011.8
20260502205223 13 321 0.0 0.0 0.00 0.08 0.08 73 1011.8
20260502204724 13 111 0.0 0.0 0.00 0.08 0.08 72 1011.9
20260502204225 13 95 0.0 0.0 0.00 0.08 0.08 72 1011.9
20260502203753 13 95 0.0 0.0 0.00 0.08 0.08 74 1011.8
20260502203216 13 96 0.0 0.0 0.00 0.08 0.08 72 1011.9
20260502202727 13 95 0.0 0.0 0.00 0.08 0.08 73 1011.9
20260502202228 14 96 0.0 0.0 0.00 0.08 0.08 73 1011.9
20260502201729 14 96 0.0 0.0 0.00 0.08 0.08 73 1011.8
20260502201238 14 96 0.0 0.0 0.00 0.08 0.08 73 1011.9
20260502200717 13 95 0.0 0.0 0.00 0.08 0.08 72 1011.8
20260502200219 13 60 0.0 0.0 0.00 0.08 0.08 71 1011.8
20260502195726 13 61 0.0 0.0 0.00 0.08 0.08 72 1011.9
20260502195227 13 62 0.0 0.0 0.00 0.08 0.08 71 1011.9
20260502194727 13 49 0.0 0.0 0.00 0.08 0.08 72 1012.0
20260502194236 13 49 0.0 0.0 0.00 0.08 0.08 71 1012.0
20260502193716 13 321 0.0 0.0 0.00 0.08 0.08 69 1012.2
20260502193225 13 48 0.0 0.0 0.00 0.08 0.08 69 1012.3
20260502192726 13 48 0.0 0.0 0.00 0.08 0.08 71 1012.3
20260502192230 13 49 0.0 0.0 0.00 0.08 0.08 70 1012.2
20260502191718 13 179 0.0 0.0 0.00 0.08 0.08 72 1012.3
20260502191217 13 321 0.0 0.0 0.00 0.08 0.08 72 1012.3
20260502190717 13 52 0.0 0.0 0.00 0.08 0.08 72 1012.3
20260502190223 13 51 0.0 6.4 0.00 0.08 0.08 72 1012.4
20260502185745 13 51 0.0 8.0 0.00 0.08 0.08 73 1012.4
20260502185232 13 51 3.2 8.0 0.00 0.08 0.08 73 1012.4
20260502184732 13 31 0.0 0.0 0.00 0.08 0.08 76 1012.5
20260502184238 13 37 0.0 4.8 0.00 0.08 0.08 77 1012.6
20260502183718 13 321 0.0 4.8 0.00 0.08 0.08 76 1012.6
20260502183220 13 321 0.0 0.0 0.00 0.08 0.08 78 1012.6
20260502182724 12 321 0.0 0.0 0.00 0.08 0.08 77 1012.7
20260502182226 12 321 0.0 0.0 0.00 0.08 0.08 79 1012.8
20260502181730 12 79 0.0 0.0 0.00 0.08 0.08 77 1012.9
20260502181239 12 321 0.0 0.0 0.00 0.08 0.08 77 1013.0
20260502180727 12 76 0.0 0.0 0.00 0.08 0.08 78 1013.1
20260502180226 12 102 0.0 0.0 0.00 0.08 0.08 78 1013.1
20260502170229 12 62 0.0 0.0 0.00 0.08 0.08 81 1013.3
20260502164227 12 321 0.0 0.0 0.00 0.08 0.08 82 1013.8
20260502163746 11 321 0.0 0.0 0.00 0.08 0.08 82 1014.0
20260502163232 11 53 0.0 0.0 0.00 0.08 0.08 82 1014.2
20260502162714 11 43 0.0 0.0 0.00 0.08 0.08 81 1014.3
20260502162242 11 75 0.0 0.0 0.00 0.08 0.08 81 1014.4
20260502161724 12 64 0.0 0.0 0.00 0.08 0.08 82 1014.4
20260502161232 12 39 0.0 0.0 0.00 0.08 0.08 82 1014.6
20260502160712 12 39 0.0 0.0 0.00 0.08 0.08 83 1014.5
20260502160215 12 39 0.0 0.0 0.00 0.08 0.08 83 1014.4
20260502152230 12 51 0.0 0.0 0.03 0.08 0.08 84 1014.0
20260502151752 12 38 0.0 0.0 0.03 0.08 0.08 84 1014.0
20260502151239 12 38 0.0 0.0 0.03 0.08 0.08 84 1014.2
20260502150720 12 37 0.0 0.0 0.03 0.08 0.08 85 1014.2
20260502150220 12 37 0.0 0.0 0.03 0.08 0.08 85 1014.3
20260502130725 11 355 0.0 0.0 0.03 0.03 0.03 78 1013.4
20260502130252 11 350 0.0 0.0 0.03 0.03 0.03 79 1013.4
20260502123730 11 8 0.0 0.0 0.03 0.03 0.03 80 1013.3
20260502123237 11 311 0.0 0.0 0.03 0.03 0.03 81 1013.2
20260502122740 11 298 0.0 0.0 0.03 0.03 0.03 81 1013.1
20260502122220 11 32 0.0 0.0 0.03 0.03 0.03 81 1012.9
20260502121728 11 336 0.0 0.0 0.03 0.03 0.03 81 1012.9
20260502121232 11 336 0.0 0.0 0.00 0.00 0.00 82 1012.9
20260502120714 11 336 0.0 0.0 0.00 0.00 0.00 82 1012.9
20260502120221 11 98 0.0 0.0 0.00 0.00 0.00 82 1013.1
20260502115751 11 351 0.0 0.0 0.00 0.00 0.00 82 1013.0
20260502115229 11 353 0.0 0.0 0.00 0.00 0.00 83 1012.9
20260502114757 11 357 0.0 0.0 0.00 0.00 0.00 83 1013.1
20260502113717 11 242 0.0 0.0 0.00 0.00 0.00 83 1013.1
20260502113227 11 242 0.0 0.0 0.00 0.00 0.00 83 1013.0
20260502112730 11 240 0.0 0.0 0.00 0.00 0.00 82 1013.0
20260502112256 11 321 0.0 0.0 0.00 0.00 0.00 82 1013.1
20260502111714 11 321 0.0 0.0 0.00 0.00 0.00 82 1013.2
20260502111245 11 321 0.0 0.0 0.00 0.00 0.00 82 1013.3
20260502110724 11 321 0.0 0.0 0.00 0.00 0.00 82 1013.3
20260502110226 11 1 0.0 0.0 0.00 0.00 0.00 82 1013.2
20260502105734 11 3 0.0 0.0 0.00 0.00 0.00 81 1013.3
20260502105236 11 360 0.0 0.0 0.00 0.00 0.00 82 1013.3
20260502104725 11 358 0.0 0.0 0.00 0.00 0.00 82 1013.2
20260502104227 11 297 0.0 0.0 0.00 0.00 0.00 83 1013.3
20260502103730 11 305 0.0 0.0 0.00 0.00 0.00 84 1013.3
20260502103214 11 305 0.0 0.0 0.00 0.00 0.00 85 1013.2
20260502102742 11 147 0.0 0.0 0.00 0.00 0.00 85 1013.2
20260502102231 11 147 0.0 0.0 0.00 0.00 0.00 85 1013.2
20260502101733 11 147 0.0 0.0 0.00 0.00 0.00 86 1013.2
20260502101215 11 147 0.0 0.0 0.00 0.00 0.00 86 1013.1
20260502100745 11 147 0.0 0.0 0.00 0.00 0.00 86 1013.2
20260502100226 11 147 0.0 0.0 0.00 0.00 0.00 86 1013.2
20260502091225 11 147 0.0 0.0 0.00 0.00 0.00 87 1013.2
20260502090728 11 147 0.0 0.0 0.00 0.00 0.00 87 1013.1
20260502090236 11 147 0.0 0.0 0.00 0.00 0.00 87 1013.0
20260502071228 11 147 0.0 0.0 0.00 0.00 0.00 87 1012.4
20260502070728 11 147 0.0 0.0 0.00 0.00 0.00 87 1012.4
20260502070237 11 147 0.0 0.0 0.00 0.00 0.00 87 1012.3
20260502065718 11 147 0.0 0.0 0.00 0.00 0.00 87 1012.3
20260502065221 11 147 0.0 0.0 0.00 0.00 0.00 87 1012.4
20260502064731 11 147 0.0 0.0 0.00 0.00 0.00 86 1012.3
20260502064213 11 147 0.0 0.0 0.00 0.00 0.00 86 1012.3
20260502063718 11 147 0.0 0.0 0.00 0.00 0.00 86 1012.4
20260502063219 11 147 0.0 0.0 0.00 0.00 0.00 86 1012.4
20260502062728 11 147 0.0 0.0 0.00 0.00 0.00 86 1012.3
20260502062230 11 147 0.0 0.0 0.00 0.00 0.00 86 1012.4
20260502061712 11 147 0.0 0.0 0.00 0.00 0.00 86 1012.5
20260502061220 11 321 0.0 0.0 0.00 0.00 0.00 86 1012.5
20260502060723 11 147 0.0 0.0 0.00 0.00 0.00 86 1012.4
20260502060224 11 147 0.0 0.0 0.00 0.00 0.00 86 1012.4
20260502055732 11 147 0.0 0.0 0.00 0.00 0.00 86 1012.5
20260502055212 11 147 0.0 0.0 0.00 0.00 0.00 86 1012.6
20260502054714 11 147 0.0 0.0 0.00 0.00 0.00 86 1012.6
20260502054223 11 147 0.0 0.0 0.00 0.00 0.00 86 1012.7
20260502053753 11 321 0.0 0.0 0.00 0.00 0.00 86 1012.8
20260502053212 11 147 0.0 0.0 0.00 0.00 0.00 86 1012.7
20260502052713 11 147 0.0 0.0 0.00 0.00 0.00 86 1012.7
20260502052214 11 147 0.0 0.0 0.00 0.00 0.00 86 1012.8
20260502051742 11 147 0.0 0.0 0.00 0.00 0.00 85 1012.8
20260502051228 11 147 0.0 0.0 0.00 0.00 0.00 85 1013.0
20260502050752 11 147 0.0 0.0 0.00 0.00 0.00 85 1013.0
20260502050213 11 147 0.0 0.0 0.00 0.00 0.00 85 1012.9
20260502045720 11 147 0.0 0.0 0.00 0.00 0.00 85 1013.1
20260502045249 11 147 0.0 0.0 0.00 0.00 0.00 85 1013.1
20260502044752 11 147 0.0 0.0 0.00 0.00 0.00 85 1013.1
20260502044238 11 147 0.0 0.0 0.00 0.00 0.00 85 1013.1
20260502043739 11 147 0.0 0.0 0.00 0.00 0.00 84 1013.1
20260502043224 11 147 0.0 0.0 0.00 0.00 0.00 84 1013.1
20260502042727 11 147 0.0 0.0 0.00 0.00 0.00 84 1013.1
20260502042231 11 147 0.0 0.0 0.00 0.00 0.00 84 1013.1
20260502041739 11 147 0.0 0.0 0.00 0.00 0.00 84 1013.2
20260502041218 11 147 0.0 0.0 0.00 0.00 0.00 83 1013.2
20260502040716 11 321 0.0 0.0 0.00 0.00 0.00 83 1013.3
20260502040224 11 321 0.0 0.0 0.00 0.00 0.00 83 1013.4
20260502035725 11 147 0.0 0.0 0.00 0.00 0.00 83 1013.3
20260502035226 11 147 0.0 0.0 0.00 0.00 0.00 82 1013.4
20260502034736 11 147 0.0 0.0 0.00 0.00 0.00 82 1013.4
20260502034217 11 321 0.0 0.0 0.00 0.00 0.00 82 1013.5
20260502033719 11 147 0.0 0.0 0.00 0.00 0.00 82 1013.4
20260502033228 12 147 0.0 0.0 0.00 0.00 0.00 82 1013.3